KE4DSI Weather Reports


Display with metric or nautical units.
time (UTC)temp
F
wind
direction
speed
MPH
gust
MPH
rain 1hr
in
rain 24hr
in
rain mn
in
humidity
%
barometer
mb
20210922030307 75 0 1.0 3.0 0.00 0.00 0.00 90 1015.6
20210922025807 75 61 1.0 3.0 0.00 0.00 0.00 90 1015.6
20210922025241 75 49 1.0 4.0 0.00 0.00 0.00 90 1015.7
20210922024739 75 16 1.0 3.0 0.00 0.00 0.00 90 1015.6
20210922024211 75 63 1.0 4.0 0.00 0.00 0.00 90 1015.7
20210922023646 75 39 1.0 4.0 0.00 0.00 0.00 90 1015.7
20210922023142 75 34 1.0 3.0 0.00 0.00 0.00 90 1015.8
20210922022615 76 355 1.0 3.0 0.00 0.00 0.00 90 1015.9
20210922022051 76 355 1.0 3.0 0.00 0.00 0.00 90 1016.0
20210922021546 76 350 1.0 3.0 0.00 0.00 0.00 90 1016.0
20210922021020 76 150 0.0 2.0 0.00 0.00 0.00 90 1016.1
20210922020455 76 150 0.0 3.0 0.00 0.00 0.00 89 1016.1
20210922015928 76 150 1.0 3.0 0.00 0.00 0.00 89 1016.1
20210922015401 76 150 1.0 3.0 0.00 0.00 0.00 89 1016.1
20210922014902 76 150 1.0 3.0 0.00 0.00 0.00 89 1016.2
20210922014359 76 150 1.0 2.0 0.00 0.00 0.00 89 1016.1
20210922013859 76 150 1.0 2.0 0.00 0.00 0.00 89 1016.0
20210922013359 76 157 1.0 4.0 0.00 0.00 0.00 89 1016.0
20210922012833 76 138 1.0 4.0 0.00 0.00 0.00 89 1016.1
20210922012327 76 183 1.0 3.0 0.00 0.00 0.00 89 1015.9
20210922011827 76 40 1.0 3.0 0.00 0.00 0.00 88 1015.8
20210922011327 77 40 1.0 3.0 0.00 0.00 0.00 89 1015.7
20210922010827 77 46 1.0 4.0 0.00 0.00 0.00 89 1015.6
20210922010324 77 43 1.0 4.0 0.00 0.00 0.00 89 1015.6
20210922005825 77 53 1.0 5.0 0.00 0.00 0.00 89 1015.5
20210922005324 76 40 1.0 5.0 0.00 0.00 0.00 89 1015.4
20210922004822 76 40 1.0 3.0 0.00 0.00 0.00 90 1015.2
20210922004323 76 20 0.0 2.0 0.00 0.00 0.00 90 1015.1
20210922003820 76 20 0.0 1.0 0.00 0.00 0.00 91 1015.1
20210922003319 76 20 0.0 1.0 0.00 0.00 0.00 91 1014.9
20210922002804 75 20 0.0 0.0 0.00 0.00 0.00 90 1014.8
20210922002258 76 20 0.0 1.0 0.00 0.00 0.00 90 1014.8
20210922001759 76 20 0.0 1.0 0.00 0.00 0.00 90 1014.7
20210922001238 76 20 0.0 1.0 0.00 0.00 0.00 90 1014.7
20210922000737 76 20 0.0 1.0 0.00 0.00 0.00 90 1014.7
20210922000214 76 20 0.0 0.0 0.00 0.00 0.00 90 1014.8
20210921235651 76 20 0.0 0.0 0.00 0.00 0.00 89 1014.7
20210921235128 77 20 0.0 1.0 0.00 0.00 0.00 89 1014.7
20210921234600 77 20 0.0 1.0 0.00 0.00 0.00 88 1014.7
20210921234100 77 20 0.0 1.0 0.00 0.00 0.00 88 1014.7
20210921233557 77 20 0.0 1.0 0.00 0.00 0.00 87 1014.7
20210921233032 78 20 0.0 1.0 0.00 0.00 0.00 86 1014.5
20210921232509 79 20 1.0 2.0 0.00 0.00 0.00 85 1014.4
20210921232007 79 20 1.0 2.0 0.00 0.00 0.00 84 1014.3
20210921231430 79 19 0.0 2.0 0.00 0.00 0.00 85 1014.2
20210921230905 80 19 0.0 3.0 0.00 0.00 0.00 85 1014.2
20210921230402 80 19 0.0 3.0 0.00 0.00 0.00 84 1014.2
20210921225859 81 19 1.0 5.0 0.00 0.00 0.00 84 1014.1
20210921225354 81 24 0.0 5.0 0.00 0.00 0.00 84 1014.2
20210921224850 81 338 0.0 0.0 0.00 0.00 0.00 85 1014.3
20210921224341 81 338 0.0 1.0 0.00 0.00 0.00 84 1014.2
20210921223841 81 338 0.0 1.0 0.00 0.00 0.00 84 1014.3
20210921223339 81 338 0.0 1.0 0.00 0.00 0.00 83 1014.2
20210921222834 82 338 0.0 1.0 0.00 0.00 0.00 82 1014.2
20210921222311 82 338 0.0 0.0 0.00 0.00 0.00 83 1014.2
20210921221740 82 338 0.0 2.0 0.00 0.00 0.00 82 1014.2
20210921221215 83 338 0.0 2.0 0.00 0.00 0.00 79 1014.1
20210921220724 83 340 0.0 4.0 0.00 0.00 0.00 79 1014.2
20210921220208 84 340 1.0 4.0 0.00 0.00 0.00 77 1014.2
20210921215704 84 252 1.0 4.0 0.00 0.00 0.00 76 1014.3
20210921215139 85 238 2.0 4.0 0.00 0.00 0.00 73 1014.3
20210921214635 87 0 1.0 4.0 0.00 0.00 0.00 70 1014.2
20210921214132 87 26 1.0 3.0 0.00 0.00 0.00 70 1014.2
20210921213628 87 229 1.0 3.0 0.00 0.00 0.00 69 1014.2
20210921213123 87 225 1.0 4.0 0.00 0.00 0.00 66 1014.3
20210921212618 87 217 1.0 4.0 0.00 0.00 0.00 68 1014.3
20210921212048 87 209 2.0 5.0 0.00 0.00 0.00 65 1014.4
20210921211547 88 196 2.0 5.0 0.00 0.00 0.00 66 1014.3
20210921211043 88 186 1.0 4.0 0.00 0.00 0.00 65 1014.3
20210921210539 87 207 1.0 4.0 0.00 0.00 0.00 65 1014.3
20210921210034 88 9 1.0 4.0 0.00 0.00 0.00 69 1014.3
20210921205530 88 113 2.0 4.0 0.00 0.00 0.00 68 1014.3
20210921205026 87 5 2.0 4.0 0.00 0.00 0.00 66 1014.3
20210921204522 88 84 1.0 4.0 0.00 0.00 0.00 68 1014.3
20210921203956 88 11 1.0 4.0 0.00 0.00 0.00 68 1014.3
20210921203455 88 273 2.0 5.0 0.00 0.00 0.00 69 1014.4
20210921202926 88 216 2.0 5.0 0.00 0.00 0.00 67 1014.4
20210921202423 87 180 2.0 5.0 0.00 0.00 0.00 67 1014.4
20210921201856 87 210 2.0 5.0 0.00 0.00 0.00 67 1014.4
20210921201354 87 106 2.0 6.0 0.00 0.00 0.00 67 1014.5
20210921200851 87 167 1.0 6.0 0.00 0.00 0.00 67 1014.5
20210921200326 87 174 2.0 6.0 0.00 0.00 0.00 67 1014.7
20210921195759 87 158 2.0 6.0 0.00 0.00 0.00 67 1014.7
20210921195234 87 240 2.0 5.0 0.00 0.00 0.00 69 1014.7
20210921194707 87 144 3.0 6.0 0.00 0.00 0.00 67 1014.8
20210921194140 87 238 2.0 6.0 0.00 0.00 0.00 69 1014.9
20210921193638 87 180 1.0 4.0 0.00 0.00 0.00 68 1015.0
20210921193115 87 216 1.0 4.0 0.00 0.00 0.00 68 1015.1
20210921192551 87 164 1.0 4.0 0.00 0.00 0.00 71 1015.1
20210921192051 87 269 1.0 4.0 0.00 0.00 0.00 70 1015.2
20210921191549 86 243 1.0 4.0 0.00 0.00 0.00 71 1015.3
20210921191031 87 212 2.0 7.0 0.00 0.00 0.00 69 1015.3
20210921190531 86 165 2.0 7.0 0.00 0.00 0.00 69 1015.4
20210921190018 87 215 2.0 5.0 0.00 0.00 0.00 70 1015.5
20210921185515 86 25 2.0 5.0 0.00 0.00 0.00 70 1015.5
20210921185015 86 131 2.0 7.0 0.00 0.00 0.00 73 1015.6
20210921184510 85 198 2.0 7.0 0.00 0.00 0.00 74 1015.7
20210921184008 85 234 2.0 7.0 0.00 0.00 0.00 74 1015.8
20210921183506 86 211 2.0 7.0 0.00 0.00 0.00 70 1015.9
20210921183004 86 247 2.0 6.0 0.00 0.00 0.00 73 1016.0
20210921182502 85 140 2.0 5.0 0.00 0.00 0.00 74 1016.2
20210921181959 86 152 1.0 6.0 0.00 0.00 0.00 72 1016.3
20210921181500 85 155 1.0 6.0 0.00 0.00 0.00 72 1016.3
20210921180959 85 138 1.0 6.0 0.00 0.00 0.00 72 1016.4
20210921180453 85 119 1.0 6.0 0.00 0.00 0.00 72 1016.5
20210921175938 84 179 1.0 3.0 0.00 0.00 0.00 76 1016.6
20210921175437 84 191 1.0 3.0 0.00 0.00 0.00 74 1016.8
20210921174910 83 86 1.0 2.0 0.00 0.00 0.00 79 1016.9
20210921174346 82 38 1.0 2.0 0.00 0.00 0.00 82 1017.2
20210921173823 81 36 0.0 2.0 0.00 0.00 0.00 82 1017.2
20210921173257 80 36 0.0 3.0 0.00 0.00 0.00 86 1017.4
20210921172747 80 36 0.0 3.0 0.00 0.00 0.00 83 1017.3
20210921172246 81 36 1.0 3.0 0.00 0.00 0.00 82 1017.4
20210921171721 81 36 1.0 4.0 0.00 0.00 0.00 83 1017.6
20210921171155 81 35 1.0 4.0 0.00 0.00 0.00 82 1017.5
20210921170651 81 13 1.0 2.0 0.00 0.00 0.00 84 1017.6
20210921170149 80 13 1.0 3.0 0.00 0.00 0.00 84 1017.7
20210921165623 80 13 1.0 3.0 0.00 0.00 0.00 84 1017.7
20210921165057 81 28 2.0 3.0 0.00 0.00 0.00 84 1017.6
20210921164530 81 355 2.0 6.0 0.00 0.00 0.00 82 1017.8
20210921164029 82 32 2.0 6.0 0.00 0.00 0.00 83 1017.7
20210921163505 81 0 2.0 6.0 0.00 0.00 0.00 82 1017.8
20210921163003 82 25 2.0 5.0 0.00 0.00 0.00 82 1017.8
20210921162500 81 30 0.0 4.0 0.00 0.00 0.00 83 1017.8
20210921161957 81 28 1.0 4.0 0.00 0.00 0.00 83 1017.8
20210921161439 81 28 1.0 4.0 0.00 0.00 0.00 82 1017.8
20210921160902 82 40 2.0 4.0 0.00 0.00 0.00 81 1017.8
20210921160357 82 36 1.0 3.0 0.00 0.00 0.00 79 1017.9
20210921155833 82 49 1.0 5.0 0.00 0.00 0.00 81 1017.9
20210921155329 81 48 1.0 5.0 0.00 0.00 0.00 81 1017.9
20210921154823 82 57 1.0 5.0 0.00 0.00 0.00 82 1018.0
20210921154320 82 201 2.0 5.0 0.00 0.00 0.00 81 1018.0
20210921153754 82 184 2.0 4.0 0.00 0.00 0.00 81 1017.9
20210921153229 81 138 1.0 3.0 0.00 0.00 0.00 82 1017.9
20210921152702 80 244 1.0 3.0 0.00 0.00 0.00 85 1017.9
20210921152135 80 194 1.0 4.0 0.00 0.00 0.00 83 1017.9
20210921151608 80 173 1.0 4.0 0.00 0.00 0.00 82 1017.9
20210921151043 80 156 1.0 3.0 0.00 0.00 0.00 84 1017.8
20210921150516 79 67 1.0 4.0 0.00 0.00 0.00 85 1017.9
20210921150011 79 138 1.0 4.0 0.00 0.00 0.00 85 1017.9
20210921145445 79 163 1.0 2.0 0.00 0.00 0.00 85 1017.8
20210921144943 79 161 1.0 3.0 0.00 0.00 0.00 85 1017.9
20210921144439 79 155 1.0 5.0 0.00 0.00 0.00 85 1017.9
20210921143935 79 153 2.0 5.0 0.00 0.00 0.00 85 1017.8
20210921143409 79 186 2.0 5.0 0.00 0.00 0.00 85 1017.8
20210921142906 79 128 2.0 5.0 0.00 0.00 0.00 85 1017.8
20210921142403 79 161 1.0 4.0 0.00 0.00 0.00 86 1017.8
20210921141859 78 118 1.0 4.0 0.00 0.00 0.00 86 1017.8
20210921141335 78 126 1.0 3.0 0.00 0.00 0.00 88 1017.8
20210921140807 78 116 1.0 4.0 0.00 0.00 0.00 88 1017.8
20210921140243 78 134 1.0 3.0 0.00 0.00 0.00 90 1017.8
20210921135715 76 102 1.0 2.0 0.00 0.00 0.00 90 1017.8
20210921135212 76 55 0.0 2.0 0.00 0.00 0.00 91 1017.7
20210921134645 76 55 1.0 2.0 0.00 0.00 0.00 91 1017.7
20210921134119 76 55 1.0 2.0 0.00 0.00 0.00 91 1017.7
20210921133554 76 55 1.0 3.0 0.00 0.00 0.00 91 1017.7
20210921133051 75 55 1.0 3.0 0.00 0.00 0.00 92 1017.6
20210921132523 75 95 1.0 3.0 0.00 0.00 0.00 93 1017.6
20210921132022 75 123 1.0 2.0 0.00 0.00 0.00 93 1017.6
20210921131519 75 79 0.0 2.0 0.00 0.00 0.00 93 1017.5
20210921130951 75 79 1.0 3.0 0.00 0.00 0.00 93 1017.5
20210921130431 75 79 1.0 3.0 0.00 0.00 0.00 93 1017.4
20210921125927 75 102 1.0 3.0 0.00 0.00 0.00 93 1017.5
20210921125424 75 100 1.0 3.0 0.00 0.00 0.00 93 1017.5
20210921124857 75 101 0.0 2.0 0.00 0.00 0.00 93 1017.4
20210921124337 74 101 0.0 2.0 0.00 0.01 0.00 93 1017.4
20210921123837 74 101 0.0 2.0 0.00 0.01 0.00 93 1017.5
20210921123336 74 101 1.0 2.0 0.00 0.01 0.00 93 1017.4
20210921122817 75 101 0.0 2.0 0.00 0.01 0.00 93 1017.5
20210921122316 74 100 0.0 2.0 0.00 0.01 0.00 93 1017.3
20210921121756 74 100 0.0 2.0 0.00 0.01 0.00 93 1017.3
20210921121235 74 100 0.0 2.0 0.00 0.01 0.00 93 1017.2
20210921120735 74 100 1.0 2.0 0.00 0.01 0.00 93 1017.2
20210921120217 74 100 0.0 2.0 0.00 0.01 0.00 93 1017.2
20210921115718 74 101 0.0 2.0 0.00 0.01 0.00 94 1017.2
20210921115155 74 101 0.0 2.0 0.00 0.01 0.00 93 1017.1
20210921114653 74 101 0.0 2.0 0.00 0.01 0.00 93 1017.0
20210921114133 74 101 1.0 2.0 0.00 0.01 0.00 93 1017.0
20210921113631 74 101 0.0 1.0 0.00 0.01 0.00 93 1016.9
20210921113128 74 101 0.0 1.0 0.00 0.01 0.00 93 1016.9
20210921112629 74 101 0.0 1.0 0.00 0.01 0.00 93 1016.7
20210921112104 74 101 0.0 2.0 0.00 0.01 0.00 93 1016.7
20210921111539 74 101 0.0 2.0 0.00 0.01 0.00 93 1016.6
20210921111039 74 101 0.0 2.0 0.00 0.01 0.00 93 1016.5
20210921110534 74 101 0.0 2.0 0.00 0.01 0.00 93 1016.4
20210921110036 74 101 0.0 1.0 0.00 0.01 0.00 93 1016.4
20210921105511 74 101 0.0 1.0 0.00 0.01 0.00 93 1016.4
20210921104945 74 101 1.0 2.0 0.00 0.01 0.00 93 1016.3
20210921104435 74 101 0.0 2.0 0.00 0.01 0.00 93 1016.2
20210921103932 74 101 0.0 2.0 0.00 0.01 0.00 93 1016.1
20210921103435 74 101 0.0 1.0 0.00 0.01 0.00 93 1016.0
20210921102906 74 101 0.0 1.0 0.00 0.01 0.00 93 1016.0
20210921102403 74 101 0.0 1.0 0.00 0.01 0.00 93 1016.1
20210921101900 74 101 0.0 1.0 0.00 0.01 0.00 93 1016.0
20210921101358 74 101 0.0 1.0 0.00 0.01 0.00 93 1015.9
20210921100854 74 101 0.0 2.0 0.00 0.01 0.00 93 1015.9
20210921100350 74 101 1.0 2.0 0.00 0.01 0.00 93 1015.8
20210921095825 74 101 1.0 3.0 0.00 0.01 0.00 93 1015.8
20210921095321 75 101 0.0 3.0 0.00 0.01 0.00 93 1015.7
20210921094755 75 101 0.0 2.0 0.00 0.01 0.00 93 1015.7
20210921094228 74 101 0.0 2.0 0.00 0.01 0.00 93 1015.7
20210921093727 75 101 0.0 1.0 0.00 0.01 0.00 93 1015.6
20210921093158 75 101 0.0 1.0 0.00 0.01 0.00 93 1015.7
20210921092632 75 101 0.0 1.0 0.00 0.01 0.00 93 1015.6
20210921092104 75 101 0.0 1.0 0.00 0.01 0.00 93 1015.6
20210921091600 75 101 0.0 2.0 0.00 0.01 0.00 93 1015.6
20210921091034 75 101 0.0 2.0 0.00 0.01 0.00 93 1015.6
20210921090532 75 103 0.0 2.0 0.00 0.01 0.00 93 1015.6
20210921090020 75 103 0.0 2.0 0.00 0.01 0.00 93 1015.5
20210921085521 75 103 1.0 2.0 0.00 0.01 0.00 93 1015.5
20210921084955 75 103 0.0 2.0 0.00 0.01 0.00 93 1015.5
20210921084427 75 103 1.0 2.0 0.00 0.01 0.00 93 1015.5
20210921083901 75 103 0.0 2.0 0.00 0.01 0.00 93 1015.4
20210921083358 75 103 0.0 2.0 0.00 0.01 0.00 93 1015.4
20210921082830 75 103 1.0 2.0 0.00 0.01 0.00 93 1015.3
20210921082306 75 103 1.0 2.0 0.00 0.01 0.00 93 1015.3
20210921081802 75 103 1.0 2.0 0.00 0.01 0.00 93 1015.4
20210921081258 75 103 1.0 2.0 0.00 0.01 0.00 93 1015.3
20210921080732 75 103 1.0 2.0 0.00 0.01 0.00 93 1015.2
20210921080229 75 103 1.0 2.0 0.00 0.01 0.00 93 1015.2
20210921075726 75 103 1.0 3.0 0.00 0.01 0.00 93 1015.2
20210921075223 75 107 1.0 2.0 0.00 0.01 0.00 93 1015.2
20210921074721 75 107 1.0 3.0 0.00 0.01 0.00 93 1015.1
20210921074218 75 90 1.0 2.0 0.00 0.01 0.00 93 1015.1
20210921073650 75 90 1.0 2.0 0.00 0.01 0.00 93 1015.1
20210921073147 75 90 1.0 2.0 0.00 0.01 0.00 93 1015.1
20210921072625 75 90 1.0 2.0 0.00 0.01 0.00 92 1015.1
20210921072124 75 90 1.0 2.0 0.00 0.01 0.00 92 1015.2
20210921071623 75 90 1.0 2.0 0.00 0.01 0.00 92 1015.2
20210921071122 75 88 1.0 2.0 0.00 0.01 0.00 92 1015.3
20210921070620 75 88 0.0 2.0 0.00 0.01 0.00 92 1015.5
20210921070123 75 87 0.0 1.0 0.00 0.01 0.00 92 1015.5
20210921065618 75 87 1.0 2.0 0.00 0.01 0.00 92 1015.5
20210921065115 74 87 1.0 4.0 0.00 0.01 0.00 92 1015.4
20210921064612 75 87 1.0 4.0 0.00 0.01 0.00 92 1015.3
20210921064110 74 87 1.0 4.0 0.00 0.01 0.00 92 1015.3
20210921063542 75 119 1.0 4.0 0.00 0.01 0.00 92 1015.4
20210921063040 75 66 1.0 2.0 0.00 0.01 0.00 92 1015.5
20210921062540 75 59 1.0 4.0 0.00 0.01 0.00 92 1015.5
20210921062041 75 57 1.0 4.0 0.00 0.01 0.00 92 1015.6
20210921061522 75 83 0.0 2.0 0.00 0.01 0.00 92 1015.6
20210921061022 75 76 0.0 1.0 0.00 0.01 0.00 92 1015.6
20210921060457 75 76 1.0 2.0 0.00 0.01 0.00 92 1015.7
20210921055939 75 76 1.0 3.0 0.00 0.01 0.00 92 1015.6
20210921055437 75 76 1.0 3.0 0.00 0.01 0.00 92 1015.6
20210921054910 75 80 1.0 3.0 0.00 0.01 0.00 92 1015.6
20210921054345 75 42 1.0 3.0 0.00 0.01 0.00 91 1015.6
20210921053832 75 22 1.0 3.0 0.00 0.01 0.00 91 1015.6
20210921053330 75 22 1.0 3.0 0.00 0.01 0.00 91 1015.7
20210921052808 75 71 1.0 3.0 0.00 0.01 0.00 92 1015.8
20210921052245 75 71 1.0 3.0 0.00 0.01 0.00 92 1015.8
20210921051726 75 71 1.0 3.0 0.00 0.01 0.00 91 1015.9
20210921051224 75 71 1.0 3.0 0.00 0.01 0.00 91 1016.0
20210921050717 75 71 1.0 3.0 0.00 0.01 0.00 91 1016.0
20210921050155 75 82 0.0 2.0 0.00 0.01 0.00 91 1016.0
20210921045656 75 52 0.0 3.0 0.00 0.01 0.01 91 1016.0
20210921045127 75 51 1.0 3.0 0.00 0.01 0.01 91 1016.0
20210921044624 75 51 1.0 3.0 0.00 0.01 0.01 91 1015.9
20210921044059 75 57 1.0 3.0 0.00 0.01 0.01 91 1015.9
20210921043532 75 76 0.0 3.0 0.00 0.01 0.01 91 1016.0
20210921043028 75 76 1.0 3.0 0.00 0.01 0.01 91 1015.9
20210921042502 75 57 1.0 3.0 0.00 0.01 0.01 91 1016.0
20210921041935 75 30 1.0 3.0 0.00 0.01 0.01 91 1016.0
20210921041432 75 34 1.0 3.0 0.00 0.01 0.01 91 1016.0
20210921040907 75 80 1.0 3.0 0.00 0.01 0.01 91 1016.0
20210921040339 75 109 1.0 3.0 0.00 0.01 0.01 91 1015.9
20210921035836 75 55 1.0 4.0 0.00 0.01 0.01 91 1016.0
20210921035309 75 42 1.0 4.0 0.00 0.01 0.01 91 1016.0
20210921034806 75 111 1.0 3.0 0.00 0.01 0.01 90 1016.0
20210921034302 76 355 2.0 3.0 0.00 0.01 0.01 90 1016.0
20210921033757 76 65 1.0 5.0 0.00 0.01 0.01 90 1016.0
20210921033253 76 57 1.0 5.0 0.00 0.02 0.01 91 1016.1
20210921032751 76 158 1.0 5.0 0.00 0.02 0.01 91 1016.0
20210921032224 76 71 1.0 5.0 0.00 0.02 0.01 91 1016.1
20210921031720 76 59 1.0 4.0 0.00 0.02 0.01 91 1016.1
20210921031155 76 117 1.0 4.0 0.00 0.02 0.01 91 1016.1